Bemidji, MN

7:17 AM CST on February 23, 2018 (GMT -0600)
Bemidji-Beltrami County

Weather History for KBJI - September, 2013

Change the Weather History Date:

Wednesday, September 4, 2013

  Actual Average Record
Temperature  
Mean Temperature 58 °F -  
Max Temperature 72 °F 72 °F 90 °F (1978)
Min Temperature 44 °F 50 °F 33 °F (1961)
Degree Days  
Heating Degree Days 6    
Growing Degree Days 8 (Base 50)    
Moisture  
Dew Point 47 °F    
Average Humidity 63    
Maximum Humidity 90    
Minimum Humidity 32    
Precipitation  
Precipitation 0.00 in - - ()
Sea Level Pressure  
Sea Level Pressure 30.15 in    
Wind  
Wind Speed 5 mph (NNE)    
Max Wind Speed 9 mph    
Max Gust Speed -    
Visibility 10 miles    
Events      
Averages and records for this station are not official NWS values.
T = Trace of Precipitation, MM = Missing Value Source: NWS Daily Summary

Daily Weather History Graph

Daily Weather History Graph

Search for Another Location

Airport or City:

Trip Planner

Search our weather history database for the weather conditions in past years. The results will help you decide how hot, cold, wet, or windy it might be!

Date:

Astronomy

Sep. 04, 2013 Rise Set
Actual Time 6:42 AM CDT 7:53 PM CDT
Civil Twilight 6:11 AM CDT 8:25 PM CDT
Nautical Twilight 5:33 AM CDT 9:02 PM CDT
Astronomical Twilight 4:52 AM CDT 9:43 PM CDT
Moon 5:56 AM CDT (9/4) 7:11 PM CDT (9/4)
Length of Visible Light 14h 13m
Length of Day
13h 10m
Waning Crescent, 1% of the Moon is Illuminated
Sep 4
Waning Crescent
Sep 5
New
Sep 12
First Quarter
Sep 19
Full
Sep 26
Last Quarter

Hourly Weather History & Observations

Time (CDT) Temp. Dew Point Humidity Pressure Visibility Wind Dir Wind Speed Gust Speed Precip Events Conditions
12:13 AM 64.9 °F 58.5 °F 79% 30.02 in 10.0 mi NW 5.8 mph - N/A   Clear
12:33 AM 66.6 °F 57.0 °F 71% 30.03 in 10.0 mi NNW 4.6 mph - N/A   Clear
12:53 AM 62.2 °F 55.2 °F 78% 30.04 in 10.0 mi NW 4.6 mph - N/A   Clear
1:13 AM 64.9 °F 55.2 °F 71% 30.04 in 10.0 mi North 8.1 mph - N/A   Clear
1:33 AM 64.4 °F 54.9 °F 71% 30.05 in 10.0 mi NNW 8.1 mph - N/A   Clear
1:53 AM 63.1 °F 54.5 °F 73% 30.05 in 10.0 mi North 6.9 mph - N/A   Clear
2:13 AM 62.4 °F 54.5 °F 75% 30.06 in 10.0 mi North 4.6 mph - N/A   Clear
2:33 AM 61.5 °F 54.5 °F 78% 30.07 in 10.0 mi North 3.5 mph - N/A   Clear
2:53 AM 60.6 °F 54.5 °F 80% 30.07 in 10.0 mi North 4.6 mph - N/A   Clear
3:13 AM 59.9 °F 54.9 °F 83% 30.07 in 10.0 mi North 5.8 mph - N/A   Clear
3:33 AM 59.9 °F 55.2 °F 84% 30.08 in 10.0 mi North 5.8 mph - N/A   Clear
3:53 AM 59.5 °F 55.0 °F 85% 30.08 in 10.0 mi North 5.8 mph - N/A   Clear
4:13 AM 59.4 °F 54.0 °F 82% 30.09 in 10.0 mi North 6.9 mph - N/A   Clear
4:33 AM 58.8 °F 53.1 °F 81% 30.09 in 10.0 mi NNE 5.8 mph - N/A   Clear
4:53 AM 58.3 °F 52.3 °F 81% 30.10 in 10.0 mi NNE 5.8 mph - N/A   Clear
5:13 AM 57.0 °F 51.6 °F 82% 30.10 in 10.0 mi NNE 4.6 mph - N/A   Clear
5:33 AM 56.5 °F 51.3 °F 83% 30.10 in 10.0 mi NNE 4.6 mph - N/A   Clear
5:53 AM 56.3 °F 51.3 °F 83% 30.11 in 10.0 mi NNE 3.5 mph - N/A   Clear
6:13 AM 55.8 °F 50.9 °F 84% 30.12 in 10.0 mi NNE 3.5 mph - N/A   Clear
6:33 AM 54.9 °F 50.9 °F 86% 30.12 in 10.0 mi Calm Calm - N/A   Clear
6:53 AM 54.0 °F 50.0 °F 86% 30.13 in 10.0 mi NNE 4.6 mph - N/A   Clear
7:13 AM 53.6 °F 50.0 °F 88% 30.14 in 10.0 mi Calm Calm - N/A   Clear
7:33 AM 54.5 °F 49.8 °F 84% 30.15 in 10.0 mi NE 4.6 mph - N/A   Clear
7:53 AM 54.5 °F 49.3 °F 83% 30.15 in 10.0 mi NE 4.6 mph - N/A   Clear
8:13 AM 54.5 °F 49.5 °F 83% 30.16 in 10.0 mi NE 3.5 mph - N/A   Clear
8:33 AM 57.4 °F 49.8 °F 76% 30.16 in 10.0 mi NE 5.8 mph - N/A   Clear
8:54 AM 58.1 °F 49.5 °F 73% 30.17 in 10.0 mi NE 6.9 mph - N/A   Clear
9:13 AM 58.1 °F 49.6 °F 73% 30.17 in 10.0 mi ENE 5.8 mph - N/A   Clear
9:33 AM 59.9 °F 50.0 °F 70% 30.18 in 10.0 mi East 4.6 mph - N/A   Clear
9:53 AM 61.5 °F 50.2 °F 66% 30.18 in 10.0 mi East 8.1 mph - N/A   Clear
10:13 AM 63.0 °F 50.2 °F 63% 30.19 in 10.0 mi ENE 4.6 mph - N/A   Clear
10:33 AM 63.7 °F 50.2 °F 61% 30.19 in 10.0 mi NNE 3.5 mph - N/A   Clear
10:53 AM 64.8 °F 48.0 °F 55% 30.18 in 10.0 mi East 5.8 mph - N/A   Clear
11:13 AM 65.7 °F 45.0 °F 47% 30.19 in 10.0 mi East 6.9 mph - N/A   Clear
11:33 AM 65.8 °F 45.9 °F 48% 30.19 in 10.0 mi ESE 3.5 mph - N/A   Clear
11:53 AM 67.1 °F 43.9 °F 43% 30.20 in 10.0 mi NNE 3.5 mph - N/A   Clear
12:13 PM 66.9 °F 42.1 °F 40% 30.20 in 10.0 mi ENE 5.8 mph - N/A   Clear
12:33 PM 66.7 °F 43.7 °F 43% 30.19 in 10.0 mi NNW 6.9 mph - N/A   Clear
12:53 PM 68.0 °F 41.2 °F 38% 30.19 in 10.0 mi NNE 4.6 mph - N/A   Clear
1:13 PM 69.3 °F 37.8 °F 32% 30.19 in 10.0 mi East 3.5 mph - N/A   Clear
1:33 PM 70.2 °F 38.7 °F 32% 30.19 in 10.0 mi NNE 4.6 mph - N/A   Clear
1:53 PM 69.8 °F 41.9 °F 36% 30.18 in 10.0 mi ENE 4.6 mph - N/A   Clear
2:13 PM 70.5 °F 41.2 °F 35% 30.17 in 10.0 mi NE 3.5 mph - N/A   Clear
2:33 PM 72.0 °F 41.4 °F 33% 30.17 in 10.0 mi SE 4.6 mph - N/A   Clear
2:53 PM 72.3 °F 40.5 °F 32% 30.17 in 10.0 mi NNW 4.6 mph - N/A   Clear
3:13 PM 72.7 °F 42.1 °F 33% 30.16 in 10.0 mi NE 5.8 mph - N/A   Clear
3:33 PM 72.7 °F 42.3 °F 33% 30.17 in 10.0 mi Calm Calm - N/A   Clear
3:53 PM 72.3 °F 43.7 °F 36% 30.17 in 10.0 mi North 6.9 mph - N/A   Clear
4:13 PM 71.8 °F 43.2 °F 36% 30.17 in 10.0 mi NNE 6.9 mph - N/A   Clear
4:33 PM 69.4 °F 48.7 °F 48% 30.17 in 10.0 mi North 8.1 mph - N/A   Clear
4:53 PM 68.9 °F 48.7 °F 49% 30.17 in 10.0 mi North 8.1 mph - N/A   Clear
5:13 PM 68.4 °F 47.7 °F 48% 30.17 in 10.0 mi North 9.2 mph - N/A   Clear
5:33 PM 66.2 °F 47.7 °F 51% 30.17 in 10.0 mi North 6.9 mph - N/A   Clear
5:52 PM 64.8 °F 40.6 °F 41% 30.17 in 10.0 mi North 6.9 mph - N/A   Clear
6:13 PM 64.4 °F 37.8 °F 37% 30.18 in 10.0 mi NNE 5.8 mph - N/A   Clear
6:33 PM 66.6 °F 37.4 °F 34% 30.18 in 10.0 mi NNE 4.6 mph - N/A   Clear
6:53 PM 66.2 °F 40.3 °F 39% 30.18 in 10.0 mi North 3.5 mph - N/A   Clear
7:13 PM 64.9 °F 42.6 °F 44% 30.18 in 10.0 mi NNE 4.6 mph - N/A   Clear
7:33 PM 62.4 °F 42.4 °F 48% 30.18 in 10.0 mi NNE 3.5 mph - N/A   Clear
7:53 PM 61.0 °F 42.8 °F 51% 30.17 in 10.0 mi NNE 3.5 mph - N/A   Clear
8:13 PM 58.1 °F 43.0 °F 57% 30.17 in 10.0 mi Calm Calm - N/A   Clear
8:33 PM 57.4 °F 43.0 °F 59% 30.18 in 10.0 mi Calm Calm - N/A   Clear
8:54 PM 53.2 °F 44.1 °F 71% 30.19 in 10.0 mi Calm Calm - N/A   Clear
9:13 PM 52.3 °F 44.1 °F 73% 30.19 in 10.0 mi Calm Calm - N/A   Clear
9:33 PM 50.4 °F 43.9 °F 78% 30.19 in 10.0 mi Calm Calm - N/A   Clear
9:53 PM 50.9 °F 43.5 °F 76% 30.19 in 10.0 mi Calm Calm - N/A   Clear
10:13 PM 48.4 °F 43.2 °F 82% 30.19 in 10.0 mi Calm Calm - N/A   Clear
10:33 PM 48.0 °F 42.8 °F 82% 30.21 in 10.0 mi Calm Calm - N/A   Clear
10:54 PM 47.8 °F 43.2 °F 84% 30.21 in 10.0 mi Calm Calm - N/A   Clear
11:13 PM 45.5 °F 42.1 °F 88% 30.21 in 10.0 mi Calm Calm - N/A   Clear
11:33 PM 46.0 °F 42.4 °F 87% 30.21 in 10.0 mi Calm Calm - N/A   Clear
11:53 PM 44.8 °F 41.9 °F 90% 30.21 in 10.0 mi Calm Calm - N/A   Clear